sat.trackr.live / text

‹ back to catalog

STARLINK-4564

NORAD 53560 · 2022-101AK

PAYLOAD ACTIVE UNKNOWN

§ Identity

Operator
Country
US
Launch date
2022-08-19
Launch site
AFETR
Launch vehicle
Mass (kg)
RCS (m²)

Purposes: comms

External: N2YO · Heavens-Above · Gunter

§ Orbital elements

Epoch: 2026-05-25T04:53:49.896672Z

Period
95.44 min
Inclination
53.2135°
Eccentricity
0.0001322
Mean motion
15.08837449 rev/d
Perigee alt
538.8 km
Apogee alt
540.7 km
Semi-major
6,917.9 km
B*
2.6899e-6
RAAN
70.8168°
Arg perigee
83.9794°
Mean anomaly
276.1349°
Rev number
20,799

§ Raw data

STARLINK-45641 53560U 22101AK  26145.20404973 -.00000245  00000+0  26899-5 0  99922 53560  53.2135  70.8168 0001322  83.9794 276.1349 15.08837449207996

JSON: /api/v1/satellites/53560 · /tle

For live sub-satellite position, see the globe view (requires WebGL).

§ Visibility from observer

Set your observer location to see the next 7 days of passes ≥ 10°. The values pass through the URL so the page stays shareable.

No JS? Fill the form by hand. The geolocation button needs JavaScript.